User: anonymous   Login
Location: Great Malvern
(52.1167°N, 2.3167°W)
Time: 03:38:50
(UTC+00:00)
Language:

Cosmos 1908 Rocket - Orbit

View from above orbital plane
View from above orbital plane
View from above satellite
View from above satellite

Ground track
Ground track

The orbit data is extracted from the following two-line orbital elements,

1 18749U 88001B   20329.18063947 +.00000103 +00000-0 +96643-5 0  9997
2 18749 082.5160 207.9530 0019903 128.9171 346.5195 14.83234573755549
Epoch (UTC): 24 November 2020 04:20:07
Eccentricity: 0.0019903
inclination: 82.5160°
perigee height: 605 km
apogee height: 633 km
right ascension of ascending node: 207.9530°
argument of perigee: 128.9171°
revolutions per day: 14.83234573
mean anomaly at epoch: 346.5195°
orbit number at epoch: 75554

The dashed part of the orbit path shows where the satellite is in the earth's shadow,  

DLR